Theta_e
310 310 310 309 309 309 310 310 310 311 311 312 312 313 313 314 315 316 316 313 313 312 312 312 313 314 314 315 315 314 317 319 319 318 318 316 317 314 315 315 314 312 313 313 313
310 310 310 309 309 309 310 310 311 311 312 313 313 314 316 318 319 319 316 314 313 312 312 312 313 314 316 316 316 316 317 316 317 317 318 316 316 316 315 316 314 313 311 311 312
310 310 310 309 309 309 310 311 311 312 312 314 315 317 319 320 319 315 312 312 312 312 312 312 313 313 316 316 317 315 316 313 315 315 316 316 316 315 316 317 314 314 311 312 312
310 311 310 309 309 309 310 311 312 312 313 315 318 319 319 319 320 314 311 311 311 311 312 313 313 315 316 316 316 317 315 315 316 315 315 316 315 316 315 314 312 311 312 312 312
310 311 310 309 309 309 310 311 312 312 313 317 319 319 319 318 318 318 314 312 311 312 313 313 313 314 315 315 316 318 316 315 315 314 315 314 315 315 313 311 311 311 311 311 312
310 310 310 309 308 309 310 311 311 312 315 318 319 318 318 319 317 317 317 315 312 312 313 312 313 313 314 315 315 314 314 314 313 313 313 314 314 313 309 308 309 309 310 310 310
310 310 310 309 308 309 310 311 311 313 316 319 319 318 318 319 318 317 316 316 313 311 312 312 312 314 314 314 312 313 315 315 314 312 313 312 313 314 309 307 307 308 307 307 307
309 310 310 309 308 309 310 311 311 314 317 318 318 318 318 318 318 317 316 315 314 312 312 312 313 314 314 312 312 314 314 319 315 313 311 313 320 312 308 308 308 305 304 305 306
310 310 310 308 308 309 310 311 312 315 318 318 318 318 318 316 316 316 315 315 314 312 312 312 314 313 313 316 316 315 320 317 317 312 313 314 319 312 308 309 308 306 304 305 305
310 310 309 307 308 309 310 311 313 316 318 318 318 317 317 315 315 315 314 313 313 312 313 313 313 315 314 316 321 320 317 315 318 314 313 315 316 311 308 309 309 306 304 302 303
309 309 308 307 308 309 310 312 316 318 318 318 317 318 315 315 314 313 313 313 313 313 315 311 316 317 317 316 316 316 316 318 315 312 314 317 317 314 309 308 307 305 304 302 302
307 307 307 307 309 311 312 315 317 317 319 318 318 317 315 314 312 312 313 313 313 315 311 313 316 317 312 312 313 313 316 317 314 311 313 315 315 315 309 310 308 306 303 302 301
308 306 307 309 313 314 314 315 318 319 320 319 318 318 317 315 313 312 312 311 312 311 313 317 315 311 312 311 313 313 315 316 316 312 311 313 316 316 310 306 305 304 303 301 301
315 309 312 316 316 316 317 316 319 320 320 319 317 318 317 316 313 312 311 311 309 313 311 313 311 310 311 313 313 316 312 312 312 313 319 313 322 317 313 309 305 303 301 301 299
316 315 318 317 317 317 316 316 318 318 323 317 314 314 313 316 312 309 310 310 312 311 312 316 311 312 313 314 311 317 310 312 312 314 314 315 317 319 310 311 307 304 301 301 299
319 317 318 318 316 317 317 317 320 320 323 317 310 311 313 310 309 307 309 310 309 311 310 314 308 311 314 309 311 309 311 311 311 314 318 317 317 320 315 313 311 304 301 300 298
317 317 318 318 317 317 318 321 321 324 317 315 314 311 315 311 309 309 310 312 316 318 318 313 313 309 308 311 308 311 315 320 319 318 321 310 315 319 315 309 309 306 302 300 298
318 318 318 318 318 317 320 318 323 321 320 310 310 312 317 311 311 309 310 314 312 314 316 320 321 312 309 315 315 312 317 322 325 321 319 309 315 316 307 304 304 306 302 300 298
319 320 318 318 317 317 317 322 321 320 319 312 310 314 316 311 312 310 313 315 315 312 319 318 319 309 307 308 313 311 313 314 313 305 317 317 314 312 305 304 303 303 301 299 298
320 320 319 318 317 317 318 320 319 319 315 314 318 316 317 313 313 313 312 312 313 311 313 316 318 309 307 309 309 311 312 314 314 322 323 318 317 320 310 308 304 303 302 300 299
317 319 320 319 318 317 319 318 318 318 315 316 318 318 316 313 314 312 315 312 312 310 312 312 315 312 308 311 314 311 312 312 314 316 324 323 319 314 315 310 306 304 303 301 299
316 319 319 319 317 318 319 317 317 318 316 317 316 319 316 312 313 313 314 316 309 309 312 313 314 316 312 308 306 312 314 313 318 316 313 315 320 306 308 309 307 306 303 302 300
316 317 319 319 320 317 318 317 317 317 319 319 318 317 315 313 316 313 313 310 308 310 313 312 316 320 316 310 307 310 310 311 313 314 319 322 320 305 304 304 304 305 303 302 301
315 315 316 319 319 318 316 319 319 317 317 318 319 317 315 317 314 319 315 310 308 309 311 312 315 318 322 320 315 313 311 310 313 317 318 317 317 308 307 306 304 303 304 302 302
314 312 313 315 319 318 319 318 319 319 316 318 319 319 320 320 319 318 315 309 308 308 310 312 316 315 315 314 312 314 313 311 312 314 318 318 316 313 309 307 307 306 303 302 302
312 308 310 310 314 317 316 319 318 319 317 318 318 319 319 320 320 321 318 316 314 308 310 309 317 315 315 315 311 312 312 311 312 313 314 315 314 312 309 306 304 304 302 302 302
310 310 309 310 310 314 316 316 314 315 312 314 316 318 318 318 318 317 314 315 314 311 310 311 314 313 319 315 308 311 312 311 311 312 312 314 313 306 305 305 306 304 303 304 302
Wind_Speed
4 3 2 2 2 2 2 2 3 2 3 4 4 5 5 6 7 7 6 4 4 6 6 5 3 2 2 3 3 3 3 5 7 8 6 4 5 2 1 1 3 2 2 4 7
6 5 4 4 4 4 4 4 4 5 5 6 6 7 6 7 7 7 4 5 6 6 7 6 5 4 2 2 2 1 2 4 3 4 6 6 3 3 4 2 4 3 1 1 2
8 8 7 7 7 7 7 6 6 6 6 7 7 7 7 7 7 2 1 3 5 7 7 7 6 3 3 1 2 0 0 4 4 4 4 4 2 3 2 3 2 3 4 2 1
12 11 10 9 10 9 8 8 8 8 7 7 8 8 7 6 3 2 2 3 5 7 9 9 4 2 1 2 1 2 2 3 4 5 4 3 2 3 5 2 6 3 6 2 0
15 13 12 12 11 11 11 10 10 10 10 9 9 8 7 4 5 6 4 4 6 8 9 6 3 3 2 3 3 3 3 3 5 6 5 5 7 3 6 9 8 6 5 1 2
18 17 15 14 14 13 13 12 12 11 10 10 10 9 7 6 7 7 8 8 9 9 9 6 3 4 5 2 2 1 3 4 5 5 6 6 4 5 6 11 11 8 5 4 3
21 20 18 17 16 16 15 14 13 12 12 11 11 10 11 12 9 8 9 9 10 11 9 7 5 5 6 4 2 0 4 5 8 5 5 8 4 9 10 14 9 7 4 2 2
23 22 21 19 18 17 16 16 14 14 13 11 10 9 8 11 12 14 13 11 11 11 10 8 7 7 3 7 2 1 2 4 4 5 3 8 4 7 15 13 7 5 2 1 2
26 24 23 21 20 19 17 16 15 15 13 11 10 7 6 10 14 15 13 11 12 10 10 10 10 4 5 5 3 2 5 7 3 3 2 7 1 10 13 10 6 5 4 3 1
28 26 24 22 21 20 18 16 15 15 14 12 12 5 13 8 10 14 14 13 11 13 11 8 4 4 3 8 8 7 6 5 7 3 4 6 10 9 11 8 7 7 5 4 3
29 28 25 23 22 21 18 13 11 8 16 12 5 5 2 12 11 12 16 17 13 8 8 3 7 12 18 16 4 1 4 9 2 1 4 11 13 11 10 8 10 9 7 6 6
30 29 27 24 22 21 18 11 9 3 7 15 23 19 9 12 9 15 19 12 9 9 9 5 13 14 2 8 8 5 8 14 5 3 4 9 13 14 13 11 13 13 13 12 11
31 30 27 23 20 21 22 19 13 6 6 9 21 22 22 21 11 20 25 12 6 9 16 12 3 9 9 7 10 11 14 12 9 2 5 5 15 19 8 8 8 12 13 15 17
32 31 24 19 18 21 23 19 11 2 5 6 8 10 17 18 8 17 27 10 5 14 10 9 4 7 11 10 12 14 12 10 7 4 9 2 7 5 9 9 12 15 18 18 17
31 28 25 28 14 22 21 16 17 6 8 4 5 6 13 11 14 10 23 10 8 8 7 6 9 9 10 9 11 6 5 9 7 9 6 8 7 7 4 11 13 19 20 21 20
36 30 27 29 27 21 16 19 22 5 13 5 5 7 9 5 4 7 10 5 5 5 2 4 1 4 4 3 6 13 7 5 3 2 8 15 13 7 8 8 13 21 25 26 25
37 33 34 35 36 25 20 28 6 13 4 8 6 9 8 7 5 7 12 12 10 8 14 4 9 4 4 5 3 7 11 4 5 5 7 1 10 12 7 5 7 24 28 26 26
38 36 37 38 36 31 32 8 12 15 20 4 6 8 10 9 5 7 9 12 15 6 4 10 7 15 13 18 10 17 14 6 7 6 2 2 8 5 1 6 5 15 27 28 28
39 41 41 44 41 38 31 16 17 16 15 12 6 6 10 6 6 8 12 9 13 16 12 9 7 3 4 4 14 8 10 3 4 1 2 6 5 7 4 6 7 14 24 29 30
47 46 51 50 47 45 18 22 18 14 10 14 20 15 17 13 12 15 15 9 8 20 11 5 5 2 2 3 1 5 10 4 4 5 7 6 7 9 9 13 11 15 25 28 29
27 18 42 54 54 39 16 21 26 17 17 16 20 15 9 12 16 11 13 6 14 12 21 5 4 4 6 12 17 6 7 5 3 4 4 5 5 6 12 15 18 22 25 30 33
27 8 22 57 21 17 20 35 27 24 19 15 7 19 14 14 14 17 19 15 26 18 16 10 2 6 11 1 2 11 10 13 6 6 4 3 6 3 2 9 17 18 23 26 32
15 13 37 52 15 14 15 26 21 20 26 15 12 11 10 14 11 18 12 9 20 18 18 12 5 5 3 3 2 9 10 13 6 2 12 7 5 3 4 5 11 14 18 25 30
9 2 12 35 23 23 23 22 25 32 18 30 19 11 5 13 13 9 12 7 20 21 21 25 8 16 17 5 10 10 14 15 17 10 16 20 11 7 8 9 12 15 19 23 30
13 5 4 4 12 15 21 12 25 22 25 27 14 26 25 17 19 24 9 4 5 9 9 11 15 19 21 9 7 8 18 21 25 31 16 20 20 14 15 15 19 19 19 22 29
12 5 2 4 4 16 15 17 22 20 11 20 24 24 22 26 26 16 19 13 10 8 9 2 13 17 19 21 14 13 17 25 27 27 26 15 16 8 20 12 11 18 20 25 32
22 19 10 4 1 5 10 14 13 8 2 4 12 19 22 28 28 21 10 16 12 15 17 12 14 8 16 15 4 7 26 20 17 21 19 20 14 7 7 14 18 18 23 29 29
Wind_Direction
201 207 240 245 251 269 270 269 279 286 298 308 311 313 317 317 315 306 289 236 214 210 204 196 191 175 124 77 74 122 180 171 173 178 147 150 173 168 243 153 86 108 170 246 270
232 243 251 261 267 270 270 274 281 293 301 310 311 311 316 318 315 296 267 229 208 194 187 188 186 160 96 75 31 271 237 163 169 163 152 146 165 168 186 171 147 124 29 325 309
252 254 260 262 263 265 268 272 279 287 294 302 306 309 313 321 317 261 209 197 184 182 179 177 156 142 105 86 27 32 272 146 176 166 146 154 181 157 199 204 116 158 179 154 113
250 257 263 262 266 265 267 273 278 281 287 293 299 304 306 312 282 210 179 156 163 161 160 155 153 93 105 158 113 197 153 157 145 188 162 191 157 198 213 173 193 189 183 175 338
249 252 258 263 262 266 269 270 274 280 286 291 295 302 307 283 250 229 218 204 183 173 173 179 173 150 197 154 159 206 180 197 176 192 220 211 222 242 179 190 207 194 168 195 301
253 253 253 256 259 260 265 270 273 275 279 285 290 293 290 257 254 239 231 218 208 199 195 196 200 172 124 158 228 148 221 251 244 218 210 212 218 193 194 188 179 170 180 189 202
250 255 255 253 253 256 259 263 268 270 275 280 284 285 277 261 252 234 228 219 212 206 209 207 196 167 145 142 150 31 282 276 231 205 217 180 203 225 173 163 159 168 165 145 108
246 251 254 254 251 252 258 262 264 267 272 278 280 279 257 257 245 234 224 216 210 207 205 196 178 158 123 134 76 258 261 255 132 167 171 195 209 157 166 165 157 142 127 67 26
246 246 249 250 250 250 255 260 263 266 270 272 272 253 255 246 233 229 215 211 202 192 185 178 166 128 138 190 202 214 255 228 283 188 152 217 215 156 174 185 175 168 168 171 124
244 243 244 246 248 250 252 257 262 267 267 269 252 253 235 223 214 210 202 189 171 168 145 158 134 179 178 198 233 205 220 231 239 168 210 225 244 166 182 203 199 180 167 142 135
244 242 241 242 244 248 251 253 265 262 233 213 219 209 184 199 192 193 188 177 162 165 184 150 203 215 213 217 254 180 220 252 200 171 244 239 256 198 188 192 194 189 173 153 145
243 240 238 240 243 243 238 216 221 226 289 244 240 232 229 195 183 189 180 174 173 192 142 164 228 229 139 195 211 227 245 252 271 206 238 249 253 254 201 222 212 189 176 165 149
244 238 236 235 236 233 234 228 230 246 265 252 233 231 225 216 215 194 184 187 185 169 195 211 163 184 173 165 200 226 230 240 260 151 213 275 264 247 210 207 195 188 178 170 162
247 237 229 220 226 228 232 222 206 196 267 232 211 220 204 201 221 200 188 178 185 208 180 234 170 151 183 211 201 236 221 238 237 242 260 223 280 232 206 204 199 188 182 173 166
252 233 216 211 212 208 228 203 185 145 272 127 148 176 165 179 143 181 181 196 182 167 181 199 178 185 203 213 186 257 142 206 220 237 267 212 263 239 195 223 203 191 183 177 171
232 228 212 214 209 217 204 170 155 187 240 174 137 162 151 161 134 112 171 161 143 133 267 274 119 206 211 96 187 137 105 89 95 203 252 227 218 206 212 219 181 186 187 182 177
220 220 213 214 207 200 173 153 170 221 131 180 175 174 173 154 151 168 173 185 180 188 224 193 219 182 164 129 92 186 164 195 223 210 249 152 214 252 237 180 188 188 185 183 181
217 216 217 218 216 196 176 181 216 226 209 100 121 137 181 153 184 160 155 197 211 198 147 201 231 191 190 213 185 193 192 199 214 205 223 129 226 238 319 136 149 186 182 181 183
216 216 215 213 210 193 179 200 218 207 189 147 129 164 198 196 173 169 199 216 201 193 205 193 244 191 205 142 170 179 214 178 113 97 257 208 236 250 185 193 176 167 179 186 188
230 219 212 211 205 199 191 215 226 207 143 180 206 191 185 183 176 191 180 192 201 196 212 202 242 219 146 137 199 200 145 170 217 214 231 210 240 223 202 208 184 186 192 190 192
236 217 212 209 202 198 203 219 218 215 192 181 212 203 199 176 196 198 199 175 205 198 195 157 233 139 140 209 189 174 194 209 210 220 231 258 233 218 199 192 189 198 196 193 195
248 230 210 202 194 204 207 211 215 212 216 228 231 221 209 181 196 206 204 207 194 153 176 198 188 197 206 139 306 233 222 191 201 189 245 306 248 160 161 182 187 191 196 197 201
228 245 185 191 203 200 222 216 225 204 206 210 210 201 194 188 213 207 202 201 170 169 172 170 206 219 220 218 182 219 205 217 213 45 211 198 220 160 146 209 198 189 195 201 203
255 230 192 201 209 203 206 219 210 223 222 215 227 208 177 215 222 209 215 190 199 197 195 163 183 210 225 205 156 203 205 207 206 227 227 233 241 196 206 208 200 207 207 205 206
229 207 227 204 200 196 203 208 221 220 214 204 216 213 216 225 230 234 185 151 206 217 188 191 223 218 238 233 204 207 195 197 209 224 216 242 228 202 194 202 198 207 203 200 205
200 170 201 305 279 206 183 208 214 216 182 212 220 219 221 218 213 217 225 205 202 180 191 191 228 215 241 241 234 235 217 204 211 223 235 247 240 178 198 191 194 209 200 206 209
218 215 202 251 343 261 215 198 200 148 126 203 227 225 216 226 229 240 212 221 202 185 190 184 209 183 236 217 191 262 228 205 210 218 222 224 237 141 173 196 207 202 206 213 212